Погода в Катовице

Польша     50˚15′57″N   19˚01′22″E
темп.,
°C
ветер,
м/с
пор.,
м/с
влажн.,
%
обл.,
%
осадки,
мм/ч
давл.,
гПа
погр.,
м
5 декабря, сб
сб501:00+3˚юв3887100 0.0 1006157
04:00+3˚юв4887100 0.0 1006158
07:00+5˚юв41283100 0.0 1006240
10:00+6˚юв41179100 0.0 1007251
13:00+9˚юв41073100 0.0 1009271
16:00+8˚юв31179100 0.0 1010266
19:00+7˚вюв51277100 0.0 1011256
22:00+8˚юв5137267 0.0 1011297
6 декабря, вс
вс601:00+7˚юв5127335 0.0 1012283
04:00+8˚юв513691 0.0 1011299
07:00+8˚юв614708 0.0 1012386
10:00+10˚юв613621 0.0 1012563
13:00+12˚юв510586 0.0 1011865
16:00+9˚вюв5117240 0.0 1011317
19:00+6˚вюв498168 0.0 1011275
22:00+6˚вюв5108287 0.0 1010289
7 декабря, пн
пн701:00+5˚вюв4108391 0.0 1010271
04:00+4˚вюв4108438 0.0 1008275
07:00+3˚вюв4108519 0.0 1008299
10:00+5˚вюв497783 0.0 1008316
13:00+6˚в5107076 0.0 1008370
16:00+4˚в5117497 0.0 1007371
19:00+3˚вюв487899 0.0 1007283
22:00+2˚в4777100 0.0 1007249
8 декабря, вт
вт801:00+2˚вюв3777100 0.0 1006255
04:00+3˚юв2583100 0.2 1007194
07:00+3˚вюв2589100 0.2 1008151
10:00+5˚юв3680100 0.0 1009213
13:00+7˚вюв356971 0.0 1009260
16:00+5˚в387727 0.0 1009227
19:00+4˚в378614 0.0 1011195
22:00+3˚в378930 0.0 1011218
9 декабря, ср
ср901:00+2˚в489165 0.0 1011263
04:00+1˚в4991100 0.0 1010341
07:00+1˚в5138690 0.0 1010388
10:00+3˚вюв5117789 0.1 1010423
13:00+4˚в497494 0.2 1009383
16:00+3˚в3980100 0.0 1008324
19:00+3˚в3983100 0.0 1007321
22:00+3˚в388595 0.2 1007284